[[{"header":{"parameterUnit":"m.s-1","parameterCategory":1,"la1":30.2991,"la2":30.254,"lo1":-89.0895,"lo2":-89.0444,"dy":0.0017,"dx":0.0017,"nx":28,"ny":28,"refTime":"2025-06-02T21:00:00:Z","depth":0,"parameterNumber":2,"parameterNumberName":"U-component_of_WINDS"},"data":[0,0,0,0,0,0,0,0,0,0,0,0,0,0,0,0,0,0,0,0,0,0,0,0,0,0,0,0,0,0,0,0,0,0,0,0,0,0,0,0,0,0,0,0,0,0,0,0,0,0,0,0,0,0,0,0,0,0,-1.6785,-1.6786,0,-1.6816,-1.6816,-1.6817,-1.6781,-1.678,-1.6778,-1.6777,-1.681,-1.6812,-1.6814,0,0,0,0,0,0,0,0,0,0,0,0,0,-1.6697,-1.6699,-1.6785,-1.6786,-1.6786,-1.6816,-1.6816,-1.6817,-1.6781,-1.678,-1.6778,-1.6777,-1.6809,-1.6811,-1.6814,0,0,0,0,0,0,0,0,0,0,0,0,0,-1.6732,-1.67,-1.6785,-1.6772,-1.6771,-1.6816,-1.6816,-1.6817,-1.6782,-1.678,-1.6778,-1.6776,-1.6808,-1.6811,-1.6814,-1.6874,0,0,-1.6824,-1.6825,0,0,0,0,0,0,0,0,-1.673,-1.6736,-1.6774,-1.6773,-1.6772,-1.6793,-1.6797,-1.6836,-1.6782,-1.6778,-1.6777,-1.6775,-1.6806,-1.6809,-1.6819,-1.6875,-1.6877,-1.6824,-1.6826,-1.6827,-1.6828,0,0,0,0,0,0,0,-1.6728,-1.6734,-1.6797,-1.6774,-1.6773,-1.6765,-1.6768,-1.6804,-1.6803,-1.6778,-1.6775,-1.6779,-1.6805,-1.6816,-1.682,-1.6877,-1.6824,-1.6827,-1.6829,-1.683,-1.6983,-1.6985,0,0,0,0,0,0,-1.6727,-1.6732,-1.6797,-1.6798,-1.6746,-1.6768,-1.6771,-1.6788,-1.6802,-1.6802,-1.6781,-1.6778,-1.6812,-1.6816,-1.6821,-1.6891,-1.6827,-1.683,-1.6832,-1.6981,-1.6984,-1.6986,0,0,0,0,0,0,-1.6725,-1.6733,-1.6795,-1.6765,-1.6772,-1.6772,-1.6791,-1.679,-1.6801,-1.6804,-1.6804,-1.6793,-1.681,-1.6816,-1.6861,-1.6891,-1.6832,-1.6835,-1.6979,-1.6982,-1.6985,-1.7032,0,0,0,0,0,0,-1.6723,-1.6733,-1.6755,-1.6765,-1.6774,-1.6835,-1.6793,-1.6792,-1.6806,-1.6802,-1.6815,-1.6816,-1.6809,-1.6856,-1.6864,-1.6895,-1.6837,-1.6976,-1.698,-1.6984,-1.7028,-1.7037,-1.7044,0,0,0,0,0,-1.672,-1.6768,-1.6757,-1.6764,-1.6802,-1.6837,-1.6841,-1.6833,-1.6809,-1.6832,-1.6834,-1.6815,-1.6887,-1.6861,-1.6869,-1.6902,-1.6974,-1.6979,-1.6984,-1.7024,-1.7035,-1.7044,0,0,0,0,0,0,-1.6762,-1.6769,-1.6757,-1.6809,-1.6822,-1.6831,-1.6859,-1.6844,-1.6865,-1.686,-1.6849,-1.6852,-1.6899,-1.6905,-1.6876,-1.696,-1.6926,-1.6933,-1.6954,-1.6965,-1.6973,-1.697,-1.684,0,0,0,0,0,-1.6777,-1.6804,-1.6809,-1.6855,-1.6862,-1.686,-1.6875,-1.6866,-1.688,-1.6886,-1.6891,-1.6905,-1.6931,-1.6948,-1.6972,-1.7028,-1.7031,-1.7055,-1.7063,-1.707,-1.7076,-1.7106,-1.7116,-1.7002,-1.7002,-1.7002,0,0,-1.6809,-1.6816,-1.6834,-1.6864,-1.6873,-1.6902,-1.6865,-1.6897,-1.6918,-1.6891,-1.6933,-1.6937,-1.6952,-1.7003,-1.7026,-1.7009,-1.7108,-1.7076,-1.7081,-1.7084,-1.7112,-1.7122,-1.7132,-1.7006,-1.7005,-1.7004,0,0,-1.6882,-1.689,-1.6929,-1.6939,-1.6954,-1.6951,-1.6961,-1.6971,-1.6973,-1.7015,-1.6995,-1.702,-1.7064,-1.7076,-1.7087,-1.7164,-1.7147,-1.7172,-1.7214,-1.7244,-1.7253,-1.7261,-1.7288,-1.7298,-1.7178,-1.7178,-1.7178,0,-1.692,-1.6962,-1.6951,-1.6984,-1.6998,-1.6974,-1.7013,-1.7023,-1.7045,-1.7055,-1.7036,-1.7091,-1.7099,-1.7152,-1.7171,-1.7181,-1.7191,-1.717,-1.7252,-1.726,-1.7267,-1.7293,-1.7303,-1.7181,-1.718,-1.718,-1.718,0,-1.7008,-1.7038,-1.7067,-1.7088,-1.7105,-1.7141,-1.7136,-1.7154,-1.7144,-1.7144,-1.7187,-1.7196,-1.7221,-1.7233,-1.7224,-1.7285,-1.7274,-1.7254,-1.722,-1.7281,-1.7305,-1.7315,-1.7185,-1.7184,-1.7183,-1.7182,0,0,-1.7109,-1.7123,-1.7134,-1.7143,-1.7156,-1.7179,-1.7214,-1.7238,-1.7254,-1.727,-1.7299,-1.7337,-1.7318,-1.7331,-1.7323,-1.7349,-1.7408,-1.7325,-1.7326,-1.734,-1.7475,-1.749,-1.7502,-1.7398,-1.7399,-1.7401,-1.7474,0,-1.7182,-1.7242,-1.7233,-1.7291,-1.7318,-1.7295,-1.7325,-1.7337,-1.7338,-1.7361,-1.7362,-1.7389,-1.7362,-1.737,-1.7394,-1.7396,-1.7435,-1.7391,-1.7425,-1.7426,-1.7422,-1.7514,-1.7531,-1.7599,-1.7483,-1.7485,-1.7486,0,-1.7275,-1.7293,-1.7354,-1.7363,-1.7374,-1.7402,-1.7422,-1.7445,-1.7458,-1.7456,-1.7471,-1.7458,-1.7493,-1.7459,-1.7507,-1.7476,-1.749,-1.7493,-1.7495,-1.7498,-1.746,-1.752,-1.7621,-1.7631,-1.7501,-1.7499,-1.7498,0,-1.7342,-1.7382,-1.7424,-1.7432,-1.7444,-1.7463,-1.7469,-1.748,-1.7495,-1.7513,-1.7522,-1.7545,-1.7557,-1.7575,-1.7568,-1.7544,-1.7618,-1.7583,-1.7618,-1.7618,-1.7634,-1.7634,-1.7739,-1.7643,-1.7643,-1.7643,-1.7643,0,-1.7425,-1.7463,-1.7454,-1.7479,-1.7521,-1.751,-1.7552,-1.7555,-1.7565,-1.759,-1.7572,-1.7597,-1.7587,-1.7611,-1.7606,-1.7646,-1.7652,-1.7652,-1.765,-1.7654,-1.7654,-1.7662,-1.7657,-1.7645,-1.7645,-1.7644,-1.7644,0,-1.7507,-1.7503,-1.7546,-1.7553,-1.7556,-1.7586,-1.7592,-1.7616,-1.7615,-1.7648,-1.7655,-1.7653,-1.7681,-1.7676,-1.7706,-1.7703,-1.7753,-1.7746,-1.7749,-1.7747,-1.7782,-1.7779,-1.7897,-1.7912,-1.7806,-1.7807,-1.7808,0,-1.756,-1.7589,-1.7599,-1.7614,-1.7621,-1.7647,-1.7661,-1.7651,-1.7668,-1.7684,-1.7706,-1.7731,-1.7751,-1.7796,-1.7797,-1.782,-1.7813,-1.7853,-1.7817,-1.7819,-1.7814,-1.7812,-1.7815,-1.786,-1.7861,-1.7862,-1.7863,0,-1.7655,-1.7651,-1.7673,-1.7693,-1.7711,-1.7727,-1.7742,-1.7755,-1.7747,-1.7766,-1.7793,-1.7808,-1.7839,-1.7864,-1.7885,-1.7891,-1.7876,-1.7875,-1.7884,-1.7888,-1.7888,-1.7888,-1.7768,-1.7872,-1.7871,-1.787,-1.787,-1.787,-1.7724,-1.7748,-1.7759,-1.7783,-1.7793,-1.7806,-1.7829,-1.783,-1.7852,-1.7876,-1.7869,-1.79,-1.7911,-1.7938,-1.7947,-1.7971,-1.7956,-1.797,-1.7973,-1.7977,-1.7981,-1.7884,-1.7975,-1.7974,-1.7974,-1.7974,-1.7974,0,-1.7818,-1.7823,-1.7846,-1.7866,-1.7885,-1.7868,-1.7883,-1.79,-1.7927,-1.7939,-1.7959,-1.799,-1.8014,-1.8018,-1.8041,-1.8059,-1.8053,-1.8066,-1.8064,-1.8066,-1.7993,-1.7982,-1.8071,-1.8071,-1.8071,-1.8071,-1.8071,-1.8071,-1.7869,-1.7909,-1.7906,-1.795,-1.7955,-1.7985,-1.7994,-1.8007,-1.8016,-1.8051,-1.8071,-1.8073,-1.8081,-1.8105,-1.8126,-1.8127,-1.8136,-1.8152,-1.815,-1.8081,-1.8071,-1.8062,-1.8052,-1.8154,-1.8154,-1.8221,-1.8221,-1.8222]},{"header":{"parameterUnit":"m.s-1","parameterCategory":1,"la1":30.2991,"la2":30.254,"lo1":-89.0895,"lo2":-89.0444,"dy":0.0017,"dx":0.0017,"nx":28,"ny":28,"refTime":"2025-06-02T21:00:00:Z","depth":0,"parameterNumber":3,"parameterNumberName":"V-component_of_WINDS"},"data":[0,0,0,0,0,0,0,0,0,0,0,0,0,0,0,0,0,0,0,0,0,0,0,0,0,0,0,0,0,0,0,0,0,0,0,0,0,0,0,0,0,0,0,0,0,0,0,0,0,0,0,0,0,0,0,0,0,0,1.6974,1.6974,0,1.6949,1.6949,1.6949,1.6911,1.6911,1.691,1.6909,1.6883,1.6883,1.6883,0,0,0,0,0,0,0,0,0,0,0,0,0,1.6988,1.6988,1.6974,1.6974,1.6974,1.6949,1.6949,1.6949,1.6911,1.6911,1.691,1.6909,1.6883,1.6883,1.6883,0,0,0,0,0,0,0,0,0,0,0,0,0,1.6975,1.6988,1.6974,1.6952,1.695,1.6949,1.6949,1.6949,1.6912,1.6911,1.691,1.6909,1.6883,1.6883,1.6883,1.6902,0,0,1.6883,1.6883,0,0,0,0,0,0,0,0,1.6976,1.6974,1.6956,1.6954,1.6951,1.6932,1.6944,1.6933,1.6912,1.6926,1.6909,1.6908,1.6901,1.6899,1.6896,1.6901,1.69,1.6883,1.6883,1.6883,1.6883,0,0,0,0,0,0,0,1.6977,1.6975,1.6964,1.6956,1.6953,1.6943,1.694,1.6942,1.6919,1.6925,1.6922,1.692,1.6899,1.6897,1.6896,1.69,1.6883,1.6883,1.6883,1.6883,1.6917,1.6918,0,0,0,0,0,0,1.6981,1.6976,1.6965,1.6964,1.6961,1.6944,1.694,1.6939,1.6919,1.6915,1.692,1.6918,1.6897,1.6896,1.6894,1.6914,1.6883,1.6883,1.6883,1.6916,1.6917,1.6918,0,0,0,0,0,0,1.6981,1.698,1.6966,1.6969,1.6967,1.6944,1.6944,1.6939,1.6937,1.6916,1.6911,1.6922,1.6896,1.6895,1.69,1.6912,1.6883,1.6883,1.6915,1.6916,1.6917,1.6954,0,0,0,0,0,0,1.6982,1.6981,1.6988,1.697,1.6967,1.6973,1.6945,1.694,1.6937,1.6933,1.6916,1.6912,1.6896,1.6901,1.69,1.6912,1.6882,1.6913,1.6915,1.6917,1.6951,1.6956,1.696,0,0,0,0,0,1.6983,1.7,1.6989,1.6988,1.6975,1.6974,1.6972,1.6952,1.6938,1.6945,1.6931,1.6913,1.6911,1.6901,1.6901,1.6912,1.6912,1.6915,1.6917,1.6949,1.6955,1.696,0,0,0,0,0,0,1.7021,1.6997,1.6984,1.6996,1.6987,1.6967,1.6976,1.696,1.6954,1.6951,1.6927,1.6923,1.6931,1.6923,1.6912,1.6929,1.6909,1.6911,1.6934,1.694,1.6944,1.6945,1.6882,0,0,0,0,0,1.703,1.7031,1.701,1.7023,1.7019,1.6998,1.6997,1.6982,1.6972,1.6968,1.6954,1.6945,1.6942,1.694,1.6937,1.695,1.6945,1.6958,1.6962,1.6966,1.6968,1.6972,1.6977,1.6925,1.6925,1.6925,0,0,1.705,1.7038,1.704,1.703,1.7021,1.7022,1.6995,1.6998,1.6997,1.6968,1.6972,1.6962,1.6949,1.6958,1.6962,1.6951,1.6981,1.6969,1.6972,1.6972,1.6975,1.698,1.6984,1.6926,1.6926,1.6926,0,0,1.7087,1.7078,1.7087,1.7078,1.7065,1.7051,1.7053,1.7036,1.7027,1.7031,1.7008,1.7008,1.7004,1.6995,1.6991,1.7023,1.7005,1.7022,1.7046,1.705,1.7054,1.7058,1.7067,1.7071,1.7024,1.7024,1.7025,0,1.7113,1.7114,1.7093,1.7096,1.7092,1.7065,1.7073,1.7066,1.7052,1.705,1.7038,1.7031,1.7021,1.7027,1.7035,1.7032,1.7033,1.7024,1.7056,1.7059,1.7062,1.7071,1.7074,1.7026,1.7026,1.7026,1.7026,0,1.7146,1.7147,1.7155,1.7142,1.7139,1.7145,1.7124,1.7123,1.7108,1.7095,1.7098,1.7085,1.7077,1.7078,1.7064,1.7081,1.7075,1.706,1.7039,1.7069,1.7077,1.708,1.7029,1.7029,1.7028,1.7028,0,0,1.7206,1.7181,1.7184,1.7177,1.716,1.716,1.7164,1.7156,1.7155,1.7146,1.7148,1.7145,1.713,1.7125,1.711,1.7114,1.7138,1.7098,1.7097,1.7104,1.7153,1.7163,1.7168,1.7127,1.7127,1.7128,1.7154,0,1.7238,1.7243,1.7223,1.7233,1.7232,1.7206,1.7209,1.7199,1.7187,1.7184,1.717,1.7167,1.715,1.7146,1.7149,1.7134,1.7147,1.7132,1.7126,1.7126,1.7129,1.7172,1.7183,1.7209,1.7157,1.7157,1.7158,0,1.7276,1.7268,1.7278,1.7259,1.7258,1.7261,1.7251,1.725,1.7237,1.7227,1.7221,1.7203,1.7205,1.7186,1.7186,1.7177,1.7173,1.7166,1.7166,1.7164,1.7143,1.7169,1.7217,1.722,1.7163,1.7162,1.7162,0,1.7316,1.7309,1.7313,1.7308,1.7287,1.7289,1.728,1.7267,1.7263,1.7254,1.7251,1.7244,1.7239,1.7233,1.7213,1.7202,1.7215,1.7195,1.7206,1.7207,1.7209,1.7209,1.7255,1.721,1.721,1.721,1.721,0,1.7352,1.7359,1.733,1.7333,1.7339,1.7316,1.7322,1.7311,1.7299,1.7298,1.7276,1.7275,1.725,1.7247,1.7231,1.7233,1.7231,1.7223,1.7218,1.7224,1.7225,1.722,1.7217,1.7211,1.721,1.721,1.721,0,1.7398,1.7379,1.7382,1.7361,1.7356,1.7361,1.7343,1.7344,1.733,1.7329,1.7328,1.7306,1.73,1.728,1.727,1.726,1.7265,1.7258,1.727,1.7267,1.7278,1.7276,1.7321,1.7325,1.7279,1.728,1.728,0,1.7422,1.7426,1.7405,1.7403,1.7395,1.7392,1.7388,1.7366,1.7362,1.7347,1.7349,1.7342,1.7335,1.7327,1.731,1.7301,1.7292,1.7309,1.7291,1.7296,1.729,1.729,1.7289,1.7312,1.7313,1.7313,1.7314,0,1.7465,1.7456,1.745,1.7442,1.7437,1.7429,1.742,1.7419,1.7394,1.7391,1.7385,1.7379,1.7368,1.7361,1.7349,1.7339,1.7322,1.7319,1.7321,1.7326,1.7332,1.7327,1.7278,1.7318,1.7318,1.7317,1.7317,1.7317,1.7499,1.7501,1.7487,1.7481,1.7472,1.7463,1.7463,1.7448,1.7443,1.7432,1.742,1.7415,1.74,1.7383,1.7374,1.7369,1.736,1.7363,1.7363,1.7364,1.7366,1.7334,1.7367,1.7367,1.7367,1.7367,1.7367,0,1.754,1.753,1.7525,1.7512,1.7507,1.7492,1.748,1.7477,1.7473,1.7462,1.7455,1.7447,1.7439,1.7421,1.7411,1.7411,1.7402,1.7409,1.7408,1.7405,1.7376,1.7375,1.7415,1.7415,1.7415,1.7415,1.7415,1.7415,1.7561,1.7563,1.7551,1.7548,1.7537,1.7532,1.7526,1.7518,1.7508,1.75,1.7494,1.7482,1.7467,1.7456,1.7447,1.7442,1.7439,1.7448,1.744,1.7412,1.7408,1.7403,1.7402,1.7447,1.7447,1.7469,1.7469,1.7469]}]]